Time,TemperatureF,DewpointF,PressureIn,WindDirection,WindDirectionDegrees,WindSpeedMPH,WindSpeedGustMPH,Humidity,HourlyPrecipIn,Conditions,Clouds,dailyrainin,SoftwareType,DateUTC
2013-04-09 00:02:00,37.0,35.0,-100.00,North,5,0.0,0.0,93,-99.99,,,-99.99,,2013-04-09 05:02:00,
2013-04-09 00:12:00,37.0,35.0,-100.00,North,5,0.0,0.0,93,-99.99,,,-99.99,,2013-04-09 05:12:00,
2013-04-09 00:22:00,37.0,35.0,-100.00,NW,315,0.0,0.0,93,-99.99,,,-99.99,,2013-04-09 05:22:00,
2013-04-09 00:43:00,37.0,35.0,-100.00,NW,315,0.0,0.0,93,-99.99,,,-99.99,,2013-04-09 05:43:00,
2013-04-09 00:52:00,37.0,35.0,-100.00,NW,315,0.0,0.0,93,-99.99,,,-99.99,,2013-04-09 05:52:00,
2013-04-09 01:02:00,37.0,35.0,-100.00,NW,315,0.0,0.0,93,-99.99,,,-99.99,,2013-04-09 06:02:00,
2013-04-09 01:12:00,37.0,35.0,-100.00,NW,315,0.0,0.0,93,-99.99,,,-99.99,,2013-04-09 06:12:00,
2013-04-09 01:22:00,36.0,35.0,-100.00,NNE,15,0.0,0.0,93,-99.99,,,-99.99,,2013-04-09 06:22:00,
2013-04-09 01:42:00,36.0,35.0,-100.00,NNE,15,0.0,0.0,93,-99.99,,,-99.99,,2013-04-09 06:42:00,
2013-04-09 01:52:00,36.0,35.0,-100.00,NNE,15,0.0,0.0,93,-99.99,,,-99.99,,2013-04-09 06:52:00,
2013-04-09 02:02:00,36.0,35.0,-100.00,NNE,15,0.0,0.0,93,-99.99,,,-99.99,,2013-04-09 07:02:00,
2013-04-09 02:13:00,36.0,35.0,-100.00,NNE,15,0.0,0.0,93,-99.99,,,-99.99,,2013-04-09 07:13:00,
2013-04-09 02:21:00,35.0,33.0,-100.00,North,10,0.0,0.0,93,-99.99,,,-99.99,,2013-04-09 07:21:00,
2013-04-09 02:42:00,35.0,33.0,-100.00,North,10,0.0,0.0,93,-99.99,,,-99.99,,2013-04-09 07:42:00,
2013-04-09 02:53:00,35.0,33.0,-100.00,North,10,0.0,0.0,93,-99.99,,,-99.99,,2013-04-09 07:53:00,
2013-04-09 03:03:00,35.0,33.0,-100.00,North,10,0.0,0.0,93,-99.99,,,-99.99,,2013-04-09 08:03:00,
2013-04-09 03:12:00,35.0,33.0,-100.00,North,10,0.0,0.0,93,-99.99,,,-99.99,,2013-04-09 08:12:00,
2013-04-09 03:20:00,34.0,33.0,-100.00,NE,55,0.0,0.0,95,-99.99,,,-99.99,,2013-04-09 08:20:00,
2013-04-09 03:42:00,34.0,33.0,-100.00,NE,55,0.0,0.0,95,-99.99,,,-99.99,,2013-04-09 08:42:00,
2013-04-09 03:52:00,34.0,33.0,-100.00,NE,55,0.0,0.0,95,-99.99,,,-99.99,,2013-04-09 08:52:00,
2013-04-09 04:02:00,34.0,33.0,-100.00,NE,55,0.0,0.0,95,-99.99,,,-99.99,,2013-04-09 09:02:00,
2013-04-09 04:12:00,34.0,33.0,-100.00,NE,55,0.0,0.0,95,-99.99,,,-99.99,,2013-04-09 09:12:00,
2013-04-09 04:22:00,34.0,33.0,-100.00,NNE,25,0.0,0.0,95,-99.99,,,-99.99,,2013-04-09 09:22:00,
2013-04-09 04:44:00,34.0,33.0,-100.00,NNE,25,0.0,0.0,95,-99.99,,,-99.99,,2013-04-09 09:44:00,
2013-04-09 04:53:00,34.0,33.0,-100.00,NNE,25,0.0,0.0,95,-99.99,,,-99.99,,2013-04-09 09:53:00,
2013-04-09 05:03:00,34.0,33.0,-100.00,NNE,25,0.0,0.0,95,-99.99,,,-99.99,,2013-04-09 10:03:00,
2013-04-09 05:13:00,34.0,33.0,-100.00,NNE,25,0.0,0.0,95,-99.99,,,-99.99,,2013-04-09 10:13:00,
2013-04-09 05:21:00,34.0,32.0,-100.00,NW,325,0.0,0.0,95,-99.99,,,-99.99,,2013-04-09 10:21:00,
2013-04-09 05:43:00,34.0,32.0,-100.00,NW,325,0.0,0.0,95,-99.99,,,-99.99,,2013-04-09 10:43:00,
2013-04-09 05:53:00,34.0,32.0,-100.00,NW,325,0.0,0.0,95,-99.99,,,-99.99,,2013-04-09 10:53:00,
2013-04-09 06:02:00,34.0,32.0,-100.00,NW,325,0.0,0.0,95,-99.99,,,-99.99,,2013-04-09 11:02:00,
2013-04-09 06:12:00,34.0,32.0,-100.00,NW,325,0.0,0.0,95,-99.99,,,-99.99,,2013-04-09 11:12:00,
2013-04-09 06:22:00,34.0,32.0,-100.00,North,10,0.0,0.0,95,-99.99,,,-99.99,,2013-04-09 11:22:00,
2013-04-09 06:43:00,34.0,32.0,-100.00,North,10,0.0,0.0,95,-99.99,,,-99.99,,2013-04-09 11:43:00,
2013-04-09 06:52:00,34.0,32.0,-100.00,North,10,0.0,0.0,95,-99.99,,,-99.99,,2013-04-09 11:52:00,
2013-04-09 07:02:00,34.0,32.0,-100.00,North,10,0.0,0.0,95,-99.99,,,-99.99,,2013-04-09 12:02:00,
2013-04-09 07:12:00,34.0,32.0,-100.00,North,10,0.0,0.0,95,-99.99,,,-99.99,,2013-04-09 12:12:00,
2013-04-09 07:22:00,33.0,32.0,-100.00,North,0,0.0,0.0,95,-99.99,,,-99.99,,2013-04-09 12:22:00,
2013-04-09 07:43:00,33.0,32.0,-100.00,North,0,0.0,0.0,95,-99.99,,,-99.99,,2013-04-09 12:43:00,
2013-04-09 07:53:00,33.0,32.0,-100.00,North,0,0.0,0.0,95,-99.99,,,-99.99,,2013-04-09 12:53:00,
2013-04-09 08:02:00,33.0,32.0,-100.00,North,0,0.0,0.0,95,-99.99,,,-99.99,,2013-04-09 13:02:00,
2013-04-09 08:12:00,33.0,32.0,-100.00,North,0,0.0,0.0,95,-99.99,,,-99.99,,2013-04-09 13:12:00,
2013-04-09 08:20:00,33.0,30.0,-100.00,North,5,0.0,0.0,87,-99.99,,,-99.99,,2013-04-09 13:20:00,
2013-04-09 08:43:00,33.0,30.0,-100.00,North,5,0.0,0.0,87,-99.99,,,-99.99,,2013-04-09 13:43:00,
2013-04-09 08:53:00,33.0,30.0,-100.00,North,5,0.0,0.0,87,-99.99,,,-99.99,,2013-04-09 13:53:00,
2013-04-09 09:03:00,33.0,30.0,-100.00,North,5,0.0,0.0,87,-99.99,,,-99.99,,2013-04-09 14:03:00,
2013-04-09 09:12:00,33.0,30.0,-100.00,North,5,0.0,0.0,87,-99.99,,,-99.99,,2013-04-09 14:12:00,
2013-04-09 09:20:00,34.0,27.0,-100.00,NNE,30,0.0,0.0,75,-99.99,,,-99.99,,2013-04-09 14:20:00,
2013-04-09 09:43:00,34.0,27.0,-100.00,NNE,30,0.0,0.0,75,-99.99,,,-99.99,,2013-04-09 14:43:00,
2013-04-09 09:52:00,34.0,27.0,-100.00,NNE,30,0.0,0.0,75,-99.99,,,-99.99,,2013-04-09 14:52:00,
2013-04-09 10:02:00,34.0,27.0,-100.00,NNE,30,0.0,0.0,75,-99.99,,,-99.99,,2013-04-09 15:02:00,
2013-04-09 10:12:00,34.0,27.0,-100.00,NNE,30,0.0,0.0,75,-99.99,,,-99.99,,2013-04-09 15:12:00,
2013-04-09 10:44:00,35.0,26.0,-100.00,NNE,25,0.0,0.0,69,-99.99,,,-99.99,,2013-04-09 15:44:00,
2013-04-09 10:53:00,35.0,26.0,-100.00,NNE,25,0.0,0.0,69,-99.99,,,-99.99,,2013-04-09 15:53:00,
2013-04-09 11:03:00,35.0,26.0,-100.00,NNE,25,0.0,0.0,69,-99.99,,,-99.99,,2013-04-09 16:03:00,
2013-04-09 11:13:00,35.0,26.0,-100.00,NNE,25,0.0,0.0,69,-99.99,,,-99.99,,2013-04-09 16:13:00,
2013-04-09 11:20:00,36.0,24.0,-100.00,North,0,0.0,0.0,63,-99.99,,,-99.99,,2013-04-09 16:20:00,
2013-04-09 11:43:00,36.0,24.0,-100.00,North,0,0.0,0.0,63,-99.99,,,-99.99,,2013-04-09 16:43:00,
2013-04-09 11:54:00,36.0,24.0,-100.00,North,0,0.0,0.0,63,-99.99,,,-99.99,,2013-04-09 16:54:00,
2013-04-09 12:02:00,36.0,24.0,-100.00,North,0,0.0,0.0,63,-99.99,,,-99.99,,2013-04-09 17:02:00,
2013-04-09 12:12:00,36.0,24.0,-100.00,North,0,0.0,0.0,63,-99.99,,,-99.99,,2013-04-09 17:12:00,
2013-04-09 13:21:00,39.0,21.0,-100.00,NNE,15,0.0,0.0,49,-99.99,,,-99.99,,2013-04-09 18:21:00,
2013-04-09 13:43:00,39.0,21.0,-100.00,NNE,15,0.0,0.0,49,-99.99,,,-99.99,,2013-04-09 18:43:00,
2013-04-09 13:53:00,39.0,21.0,-100.00,NNE,15,0.0,0.0,49,-99.99,,,-99.99,,2013-04-09 18:53:00,
2013-04-09 14:03:00,39.0,21.0,-100.00,NNE,15,0.0,0.0,49,-99.99,,,-99.99,,2013-04-09 19:03:00,
2013-04-09 14:12:00,39.0,21.0,-100.00,NNE,15,0.0,0.0,49,-99.99,,,-99.99,,2013-04-09 19:12:00,
2013-04-09 14:20:00,42.0,20.0,-100.00,NE,50,0.0,0.0,41,-99.99,,,-99.99,,2013-04-09 19:20:00,
2013-04-09 14:53:00,42.0,20.0,-100.00,NE,50,0.0,0.0,41,-99.99,,,-99.99,,2013-04-09 19:53:00,
2013-04-09 15:02:00,42.0,20.0,-100.00,NE,50,0.0,0.0,41,-99.99,,,-99.99,,2013-04-09 20:02:00,
2013-04-09 15:12:00,42.0,20.0,-100.00,NE,50,0.0,0.0,41,-99.99,,,-99.99,,2013-04-09 20:12:00,
2013-04-09 15:44:00,42.0,19.0,-100.00,NE,50,0.0,0.0,39,-99.99,,,-99.99,,2013-04-09 20:44:00,
2013-04-09 15:53:00,42.0,19.0,-100.00,NE,50,0.0,0.0,39,-99.99,,,-99.99,,2013-04-09 20:53:00,
2013-04-09 16:02:00,42.0,19.0,-100.00,NE,50,0.0,0.0,39,-99.99,,,-99.99,,2013-04-09 21:02:00,
2013-04-09 16:13:00,42.0,19.0,-100.00,NE,50,0.0,0.0,39,-99.99,,,-99.99,,2013-04-09 21:13:00,
2013-04-09 16:22:00,42.0,19.0,-100.00,NE,40,0.0,0.0,39,-99.99,,,-99.99,,2013-04-09 21:22:00,
2013-04-09 16:53:00,42.0,19.0,-100.00,NE,40,0.0,0.0,39,-99.99,,,-99.99,,2013-04-09 21:53:00,
2013-04-09 17:03:00,42.0,19.0,-100.00,NE,40,0.0,0.0,39,-99.99,,,-99.99,,2013-04-09 22:03:00,
2013-04-09 17:12:00,42.0,19.0,-100.00,NE,40,0.0,0.0,39,-99.99,,,-99.99,,2013-04-09 22:12:00,
2013-04-09 18:21:00,41.0,19.0,-100.00,ENE,75,0.0,0.0,41,-99.99,,,-99.99,,2013-04-09 23:21:00,
2013-04-09 18:43:00,41.0,19.0,-100.00,ENE,75,0.0,0.0,41,-99.99,,,-99.99,,2013-04-09 23:43:00,
2013-04-09 18:53:00,41.0,19.0,-100.00,ENE,75,0.0,0.0,41,-99.99,,,-99.99,,2013-04-09 23:53:00,
2013-04-09 19:03:00,41.0,19.0,-100.00,ENE,75,0.0,0.0,41,-99.99,,,-99.99,,2013-04-10 00:03:00,
2013-04-09 19:12:00,41.0,19.0,-100.00,ENE,75,0.0,0.0,41,-99.99,,,-99.99,,2013-04-10 00:12:00,
2013-04-09 19:43:00,39.0,19.0,-100.00,NE,50,0.0,9.0,44,-99.99,,,-99.99,,2013-04-10 00:43:00,
2013-04-09 19:53:00,39.0,19.0,-100.00,NE,50,0.0,9.0,44,-99.99,,,-99.99,,2013-04-10 00:53:00,
2013-04-09 20:02:00,39.0,19.0,-100.00,NE,50,0.0,9.0,44,-99.99,,,-99.99,,2013-04-10 01:02:00,
2013-04-09 20:12:00,39.0,19.0,-100.00,NE,50,0.0,9.0,44,-99.99,,,-99.99,,2013-04-10 01:12:00,
2013-04-09 20:20:00,38.0,18.0,-100.00,ENE,65,0.0,0.0,44,-99.99,,,-99.99,,2013-04-10 01:20:00,
2013-04-09 20:43:00,38.0,18.0,-100.00,ENE,65,0.0,0.0,44,-99.99,,,-99.99,,2013-04-10 01:43:00,
2013-04-09 20:53:00,38.0,18.0,-100.00,ENE,65,0.0,0.0,44,-99.99,,,-99.99,,2013-04-10 01:53:00,
2013-04-09 21:02:00,38.0,18.0,-100.00,ENE,65,0.0,0.0,44,-99.99,,,-99.99,,2013-04-10 02:02:00,
2013-04-09 21:12:00,38.0,18.0,-100.00,ENE,65,0.0,0.0,44,-99.99,,,-99.99,,2013-04-10 02:12:00,
2013-04-09 21:21:00,37.0,15.0,-100.00,NE,55,0.0,0.0,41,-99.99,,,-99.99,,2013-04-10 02:21:00,
2013-04-09 21:43:00,37.0,15.0,-100.00,NE,55,0.0,0.0,41,-99.99,,,-99.99,,2013-04-10 02:43:00,
2013-04-09 21:53:00,37.0,15.0,-100.00,NE,55,0.0,0.0,41,-99.99,,,-99.99,,2013-04-10 02:53:00,
2013-04-09 22:03:00,37.0,15.0,-100.00,NE,55,0.0,0.0,41,-99.99,,,-99.99,,2013-04-10 03:03:00,
2013-04-09 22:12:00,37.0,15.0,-100.00,NE,55,0.0,0.0,41,-99.99,,,-99.99,,2013-04-10 03:12:00,
2013-04-09 22:23:00,36.0,15.0,-100.00,NE,50,0.0,0.0,42,-99.99,,,-99.99,,2013-04-10 03:23:00,
2013-04-09 22:43:00,36.0,15.0,-100.00,NE,50,0.0,0.0,42,-99.99,,,-99.99,,2013-04-10 03:43:00,
2013-04-09 22:53:00,36.0,15.0,-100.00,NE,50,0.0,0.0,42,-99.99,,,-99.99,,2013-04-10 03:53:00,
2013-04-09 23:03:00,36.0,15.0,-100.00,NE,50,0.0,0.0,42,-99.99,,,-99.99,,2013-04-10 04:03:00,
2013-04-09 23:13:00,36.0,15.0,-100.00,NE,50,0.0,0.0,42,-99.99,,,-99.99,,2013-04-10 04:13:00,
2013-04-09 23:22:00,35.0,14.0,-100.00,NE,35,0.0,0.0,42,-99.99,,,-99.99,,2013-04-10 04:22:00,
2013-04-09 23:43:00,35.0,14.0,-100.00,NE,35,0.0,0.0,42,-99.99,,,-99.99,,2013-04-10 04:43:00,
2013-04-09 23:53:00,35.0,14.0,-100.00,NE,35,0.0,0.0,42,-99.99,,,-99.99,,2013-04-10 04:53:00,